Location: Gleizolles
(44.4833°N, 6.7667°E)
Time: 22:06:14
(UTC+00:00)

Tiros 1 despin weight - Pass Details

Date: 25 June 2024
Orbit: 576 x 620 km, 48.2° (Epoch: 19 July)

Event Time Altitude Azimuth Distance (km) Brightness Sun altitude
Rises 15:08:57 0° 291° (WNW) 2,898 ? 42.0°
Reaches altitude 10° 15:11:16 10° 291° (WNW) 1,988 ? 41.6°
Maximum altitude 15:15:51 88° 15° (NNE) 623 ? 40.8°
Drops below altitude 10° 15:20:24 10° 112° (ESE) 1,967 ? 40.0°
Sets 15:22:41 0° 113° (ESE) 2,863 ? 39.6°
